Regional Weather Roundup
Issued by NWS Kansas City/Pleasant Hill, MO

Home | Current Version | Previous Version | Text Only | Print | Product List | Glossary On
Versions: 1 2 3 4 5 6 7 8 9 10 11 12 13 14 15 16 17 18 19 20 21 22 23 24 25 26 27
000
ASUS43 KEAX 180410
RWREAX

WEATHER ROUNDUP FOR EASTERN KANSAS AND NORTHWEST MISSOURI
NATIONAL WEATHER SERVICE KANSAS CITY/PLEASANT HILL MO
1000 PM CST FRI NOV 17 2017

KSZ040-057-103>105-MOZ028-029-037-043-180500-
...KANSAS CITY METROPOLITAN AREA...

CITY           SKY/WX    TMP DP  RH WIND       PRES   REMARKS
K.C. INTL      CLOUDY    58  56  93 S6        29.46F
K.C. DOWNTOWN  CLOUDY    61  57  87 CALM      29.45F
LEES SUMMIT    CLOUDY    63  61  93 S7        29.47F
OLATHE - IXD   CLOUDY    59  57  93 CALM      29.46F
OLATHE - OJC   CLOUDY    58  57  97 E3        29.46F
LAWRENCE       CLOUDY    55  54  96 E3        29.44F

$$

MOZ001>008-011>017-020>025-030>033-038>040-044>046-053-054-180500-
...NORTHERN AND CENTRAL MISSOURI...

CITY           SKY/WX    TMP DP  RH WIND       PRES   REMARKS
ST. JOSEPH     FOG       52  52 100 NE5       29.47F VSB 1/4
MOSBY          CLOUDY    52  52 100 CALM      29.47S FOG
WARRENSBURG    CLOUDY    61  55  82 S3        29.48F
WHITEMAN AFB   CLEAR     61  58  90 S8        29.45F
CLINTON        CLOUDY    66  61  82 MISG      29.51S
SEDALIA        MOCLDY    65  62  90 S13       29.51F
WARSAW         NOT AVBL
CHILLICOTHE      N/A     57  56  96 SE3       29.49F
KIRKSVILLE     CLOUDY    57  56  96 SE5       29.52S

$$

MOZ041-047>049-056>058-063>065-088>090-097-180500-
...EASTERN AND SOUTHERN MISSOURI...

CITY           SKY/WX    TMP DP  RH WIND       PRES   REMARKS
ST. LOUIS INTL CLOUDY    58  52  80 SE12      29.61F
SPIRIT OF STL  CLOUDY    63  57  81 S3        29.58F
COLUMBIA       PTCLDY    63  59  87 S13       29.53F
JEFFERSON CITY MOCLDY    67  59  75 S8        29.53F
ROLLA          MOCLDY    65  60  84 S17       29.57F
OSAGE BEACH    PTCLDY    65  60  84 S12G21    29.56S
SPRINGFIELD    PTCLDY    65  61  87 S17       29.57F
BRANSON        PTCLDY    66  59  77 S10       29.63F
JOPLIN         CLOUDY    71  64  78 S21G32    29.53F
WEST PLAINS    PTCLDY    66  61  84 S9        29.66F

$$

IAZ060-094-KSZ022-034>040-054-083-096-NEZ052-066-093-180500-
...KANSAS...SOUTHEAST NEBRASKA AND IOWA...

CITY           SKY/WX    TMP DP  RH WIND       PRES   REMARKS
TOPEKA         MOCLDY    53  53 100 CALM      29.43F
MANHATTAN      PTCLDY    56  50  80 NE5       29.43F
EMPORIA        CLOUDY    64  51  62 S13       29.41F
CHANUTE        CLOUDY    71  61  70 S17G24    29.46F
WICHITA        CLOUDY    68  48  48 S16       29.40F
OMAHA          PTCLDY    45  38  76 NW5       29.55F
LINCOLN        CLOUDY    49  39  68 N16       29.61R
FALLS CITY     CLOUDY    56  55  97 N5        29.48F FOG
LAMONI         FOG       54  54 100 N7        29.52S VSB 1/4
DES MOINES     FOG       48  48 100 N7        29.55S VSB 1/4

$$





USA.gov is the U.S. government's official web portal to all federal, state and local government web resources and services.